AO-07 1 07530U 74089B 21077.84783750 -.00000027 00000-0 11606-3 0 9999 2 07530 101.8447 52.4813 0012073 194.9396 279.1242 12.53647804120616 UO-11 1 14781U 84021B 21077.79568848 .00000150 00000-0 24433-4 0 9994 2 14781 97.5929 82.1043 0009085 28.9968 331.1749 14.83259404993498 LO-19 1 20442U 90005G 21077.29674879 .00000019 00000-0 23414-4 0 9993 2 20442 98.7308 31.9870 0012851 70.8650 289.3924 14.32979276627776 HUBBLE 1 20580U 90037B 21077.36310640 .00000675 00000-0 29919-4 0 9996 2 20580 28.4702 307.7764 0002763 159.3384 3.5718 15.09585788497319 MET-2/21 1 22782U 93055A 21077.34950834 .00000095 00000-0 72337-4 0 9996 2 22782 82.5530 16.2142 0022153 183.7507 295.7054 13.83834889390926 AO-27 1 22825U 93061C 21077.56506265 -.00000012 00000-0 13295-4 0 9998 2 22825 98.9239 92.9221 0007506 303.3631 56.6831 14.30108861432991 IO-26 1 22826U 93061D 21077.83674790 -.00000009 00000-0 14663-4 0 9994 2 22826 98.9181 93.1180 0007927 288.2878 71.7441 14.30446896433524 FO-29 1 24278U 96046B 21077.49928545 -.00000001 00000-0 34599-4 0 9997 2 24278 98.5751 157.4946 0350782 25.4332 336.3619 13.53102361213945 NOAA-15 1 25338U 98030A 21077.78385014 .00000023 00000-0 28040-4 0 9997 2 25338 98.6927 107.0753 0010502 178.8845 181.2360 14.26017695188320 GO-32 1 25397U 98043D 21077.32450278 .00000003 00000-0 20626-4 0 9991 2 25397 98.7619 23.1730 0001542 32.2514 327.8758 14.23703450178525 ISS 1 25544U 98067A 21077.90380951 .00000438 00000-0 16156-4 0 9990 2 25544 51.6446 69.2656 0003372 124.8375 312.4992 15.48914345274600 NO-44 1 26931U 01043C 21077.57342255 -.00000006 00000-0 29434-4 0 9992 2 26931 67.0513 154.9802 0007417 266.7683 93.2570 14.30610102 16248 SO-50 1 27607U 02058C 21077.76502373 .00000035 00000-0 25338-4 0 9990 2 27607 64.5540 255.6554 0031706 57.7885 302.6284 14.75723570981337 CO-55 1 27844U 03031E 21077.58646285 .00000055 00000-0 44197-4 0 9992 2 27844 98.6831 87.1671 0009539 348.7732 11.3232 14.22294840919065 CO-57 1 27848U 03031J 21077.48231022 .00000037 00000-0 36547-4 0 9994 2 27848 98.6890 87.6324 0009703 2.3634 357.7588 14.21873589918883 RS-22 1 27939U 03042A 21077.80133091 .00000179 00000-0 40609-4 0 9991 2 27939 98.1245 215.6095 0012412 201.0594 159.0110 14.66955644934238 NOAA-18 1 28654U 05018A 21077.78285503 .00000066 00000-0 59952-4 0 9990 2 28654 99.0045 142.2480 0014566 174.3372 185.7967 14.12590066815735 CO-58 1 28895U 05043F 21077.31341922 .00000211 00000-0 49179-4 0 9994 2 28895 98.0426 212.6230 0017825 134.9013 225.3640 14.63879346820679 Falconsat-3 1 30776U 07006E 21077.36651567 .00004744 00000-0 11749-3 0 9996 2 30776 35.4350 325.2622 0001891 185.4520 174.6187 15.39894123779058 CO-65 1 32785U 08021C 21077.39115852 .00000358 00000-0 43972-4 0 9992 2 32785 97.6034 59.8146 0011750 309.9112 50.1072 14.88658631698624 AAUSAT2 1 32788U 08021F 21077.56142518 .00000482 00000-0 48467-4 0 9995 2 32788 97.5029 76.0519 0010706 208.4931 151.5706 14.95445324700273 DO-64 1 32789U 08021G 21077.55830354 .00001472 00000-0 97788-4 0 9997 2 32789 97.3872 116.3970 0013727 95.7139 264.5656 15.08625234703121 CO-66 1 32791U 08021J 21077.44960601 .00000629 00000-0 68426-4 0 9997 2 32791 97.5652 65.8660 0011644 269.9854 90.0031 14.91313910699298 RS-30 1 32953U 08025A 21077.60380695 .00000028 00000-0 12906-3 0 9992 2 32953 82.5002 107.4406 0019750 171.6585 188.4829 12.43100661581691 PRISM 1 33493U 09002B 21077.86120480 .00000332 00000-0 34000-4 0 9998 2 33493 98.1785 36.1046 0013904 224.8906 135.1191 14.97497263660779 NOAA-19 1 33591U 09005A 21077.80834640 .00000002 00000-0 26453-4 0 9991 2 33591 99.1912 96.2354 0014339 30.4570 329.7431 14.12455905624122 TISAT-1 1 36799U 10035E 21077.49254516 .00000367 00000-0 42672-4 0 9997 2 36799 98.2061 264.6214 0012901 146.9825 213.2200 14.91640435579777 JUGNU 1 37839U 11058B 21077.35876074 .00000312 00000-0 24544-4 0 9991 2 37839 19.9617 61.6567 0019032 167.4490 343.5358 14.12707093487679 SRMSAT 1 37841U 11058D 21077.54692035 .00000311 00000-0 26075-4 0 9998 2 37841 19.9713 130.5151 0011978 16.0018 134.5277 14.10688213486857 AO-71 1 37854U 11061E 21077.57132164 .00001648 00000-0 88323-4 0 9999 2 37854 101.7067 316.8278 0155452 326.2556 32.8836 15.08292763512783 HRBE 1 37855U 11061F 21077.62747995 .00001571 00000-0 83243-4 0 9991 2 37855 101.7208 313.9417 0167952 340.8455 18.6491 15.07325701512969 HORYU-2 1 38340U 12025D 21077.44161756 .00000264 00000-0 46162-4 0 9994 2 38340 98.2426 143.0650 0010356 242.5837 117.4319 14.75994000464960 RS-40 1 38735U 12041C 21077.12695995 .00000000 00000-0 -71168-4 0 9995 2 38735 82.4802 190.0222 0016652 286.4665 73.4584 12.42582123391841 BEESAT-3 1 39135U 13015F 21077.60261542 .00001575 00000-0 84203-4 0 9993 2 39135 64.8658 135.5394 0009974 199.5091 160.5655 15.19052234436848 BEESAT-2 1 39136U 13015G 21077.56267329 .00001297 00000-0 71902-4 0 9991 2 39136 64.8756 141.6895 0027954 253.6739 106.1314 15.18434546436703 ZACUBE-1 1 39417U 13066B 21077.40470928 .00000378 00000-0 53159-4 0 9996 2 39417 97.5870 66.4840 0060210 99.3709 261.4319 14.81450076395599 TRITON-1 1 39427U 13066M 21077.81119460 .00000327 00000-0 60219-4 0 9992 2 39427 97.7653 30.1144 0111981 280.9877 77.8749 14.68179101392104 Delfi-N3xt 1 39428U 13066N 21077.76240053 .00000549 00000-0 94795-4 0 9992 2 39428 97.7706 28.5117 0118644 294.1153 64.7681 14.67915002391849 GOMX-1 1 39430U 13066Q 21077.76773559 .00000409 00000-0 82212-4 0 9993 2 39430 97.8123 6.0577 0151786 40.8442 320.4030 14.59556747389810 LO-74 1 39440U 13066AA 21077.35319717 .00000283 00000-0 45950-4 0 9999 2 39440 97.6667 51.2492 0080062 170.0631 190.2186 14.76182909394189 AO-73 1 39444U 13066AE 21077.44419540 .00000420 00000-0 57238-4 0 9993 2 39444 97.5784 68.8656 0059337 90.3306 270.4708 14.82342923393958 SPROUT 1 39770U 14029E 21077.78370294 .00001125 00000-0 12783-3 0 9992 2 39770 97.9058 189.2011 0009839 140.5239 219.6676 14.88249504369854 DUCHIFAT-1 1 40021U 14033M 21077.81955548 .00000572 00000-0 63285-4 0 9992 2 40021 97.9655 17.0985 0014235 101.2738 259.0081 14.91224931366777 NANOSATCBR1 1 40024U 14033Q 21077.79796349 .00000433 00000-0 50378-4 0 9999 2 40024 97.9457 12.4912 0013551 106.1509 254.1201 14.90341707366612 DTUSAT-2 1 40030U 14033W 21077.76618442 .00000359 00000-0 44165-4 0 9994 2 40030 97.9134 5.0548 0013169 110.5046 249.7586 14.88919041366338 EO-80 1 40032U 14033Y 21077.52510810 .00000414 00000-0 50061-4 0 9994 2 40032 97.9141 4.8192 0013128 111.9555 248.3058 14.88874115365762 ANTELSAT 1 40034U 14033AA 21077.79476793 .00000290 00000-0 49918-4 0 9997 2 40034 97.6872 285.8960 0058163 190.5044 169.4955 14.74421326362831 VELOX-1 1 40057U 14034E 21077.75728208 .00000464 00000-0 71894-4 0 9991 2 40057 98.3124 228.8916 0010653 354.9595 5.1509 14.78096454362140 DAURIA DX 1 1 40071U 14037C 21077.74445705 .00000163 00000-0 28348-4 0 9999 2 40071 98.4579 277.3925 0008169 346.9409 13.1591 14.81465753361868 HODOYOSHI-1 1 40299U 14070B 21077.73577725 .00001216 00000-0 52169-4 0 9993 2 40299 97.2934 153.7485 0011636 314.6483 159.5059 15.24542130353595 CHUBUSAT-1 1 40300U 14070C 21077.70546019 .00001265 00000-0 56439-4 0 9993 2 40300 97.2539 144.1992 0019048 331.9771 144.6182 15.23019127353241 QSAT-EOS 1 40301U 14070D 21077.74644918 .00003263 00000-0 12047-3 0 9991 2 40301 97.2617 151.6645 0023042 297.9268 175.5014 15.28221392353801 FIREBIRD FU3 1 40377U 15003B 21077.76862478 .00004439 00000-0 16450-3 0 9994 2 40377 99.0847 200.1404 0120177 116.6758 244.6838 15.21785195339007 FIREBIRD FU4 1 40378U 15003C 21077.28772287 .00005551 00000-0 20425-3 0 9993 2 40378 99.0852 199.6863 0120263 118.1033 243.2416 15.21830875338938 GRIFEX 1 40379U 15003D 21077.75980779 .00002982 00000-0 12341-3 0 9996 2 40379 99.0824 190.3422 0130301 146.8947 214.0523 15.17594626338439 NO-84 1 40654U 15025D 21076.36497753 .00030998 00000-0 25848-3 0 2264 2 40654 54.9838 114.6338 0088745 179.0217 181.0630 15.64740300211578 DEORBITSAIL 1 40719U 15032E 21077.64628813 .00000507 00000-0 78395-4 0 9995 2 40719 97.8401 325.0671 0017422 44.6489 315.6121 14.77272021306570 NUDT-PHONESAT 1 40900U 15049B 21077.69999218 .00004535 00000-0 18016-3 0 9998 2 40900 97.4253 92.4304 0013916 97.5012 355.0590 15.25744749304980 XW-2A 1 40903U 15049E 21077.75465601 .00004064 00000-0 88962-4 0 9997 2 40903 97.2484 132.4912 0012359 353.7026 72.5322 15.44634733308798 XW-2C 1 40906U 15049H 21077.78339325 .00001118 00000-0 60613-4 0 9996 2 40906 97.4859 81.2818 0015682 137.2732 347.7218 15.16552092303822 XW-2D 1 40907U 15049J 21077.72317385 .00001446 00000-0 76723-4 0 9996 2 40907 97.4848 80.9878 0015077 133.7770 312.8152 15.16848741303845 LILACSAT-2 1 40908U 15049K 21077.75399628 .00000367 00000-0 23571-4 0 9994 2 40908 97.5036 78.9933 0016427 147.8356 264.4473 15.14325806303502 XW-2E 1 40909U 15049L 21077.75626444 .00001961 00000-0 96161-4 0 9990 2 40909 97.4673 84.9133 0014701 122.5238 324.5099 15.19219317304169 XW-2F 1 40910U 15049M 21077.72985843 .00002060 00000-0 10228-3 0 9990 2 40910 97.4729 83.9602 0015733 122.1141 324.6010 15.18723493303952 XW-2B 1 40911U 15049N 21077.79399597 .00001392 00000-0 74164-4 0 9990 2 40911 97.4849 81.7498 0014992 134.4054 350.2438 15.16768017303745 DCBB 1 40912U 15049P 21077.74562711 .00002332 00000-0 10731-3 0 9990 2 40912 97.4477 88.3226 0016270 98.6029 347.7057 15.21219290304401 TW-1A 1 40928U 15051D 21077.75173178 .00005782 00000-0 12484-3 0 9995 2 40928 97.0854 104.8494 0007951 264.2034 185.5006 15.44881586307680 IO-86 1 40931U 15052B 21075.33804527 .00000763 00000-0 17291-4 0 9997 2 40931 5.9972 196.5001 0012388 164.3079 195.7490 14.76666586295517 LQSat 1 40958U 15057A 21077.73260928 .00000050 00000-0 15302-4 0 9998 2 40958 97.8150 137.6039 0018033 353.0058 7.0888 14.73161231292885 ATHENOXAT-1 1 41168U 15077C 21077.57717209 .00003476 00000-0 14266-3 0 9997 2 41168 14.9876 208.9680 0011395 348.5135 101.2392 15.15332949290975 ChubuSat-2 1 41338U 16012B 21077.26559338 .00000539 00000-0 34961-4 0 9991 2 41338 31.0040 45.7288 0013657 309.4483 50.4944 15.00466671278892 ChubuSat-3 1 41339U 16012C 21077.29770223 .00000557 00000-0 36259-4 0 9995 2 41339 31.0136 42.8481 0013636 317.3680 42.5896 15.00620239278896 Horyu-4 1 41340U 16012D 21077.23296644 .00000887 00000-0 59825-4 0 9991 2 41340 31.0062 27.9394 0013692 346.4505 13.5762 15.01786430279061 OUFTI-1 1 41458U 16025C 21077.76681037 .00001935 00000-0 97469-4 0 9998 2 41458 98.1283 209.5081 0159740 6.0315 354.2785 15.08153080268800 e-st@r-II 1 41459U 16025D 21077.76682271 .00002558 00000-0 12871-3 0 9995 2 41459 98.1265 208.6710 0161252 8.6225 351.7730 15.07619633268755 AAUSAT4 1 41460U 16025E 21077.77531664 .00003278 00000-0 15711-3 0 9993 2 41460 98.1263 212.1154 0148795 353.8344 6.1036 15.10458403269022 LO-87 1 41557U 16033B 21077.77729478 .00002952 00000-0 10718-3 0 9991 2 41557 97.3922 172.2652 0012479 189.8117 288.0430 15.29040553267676 NuSat2 1 41558U 16033C 21077.77849753 .00003149 00000-0 10712-3 0 9994 2 41558 97.4004 175.6743 0011789 183.7733 333.9397 15.31133551267842 Lapan A3 1 41603U 16040E 21077.75214389 .00000268 00000-0 15485-4 0 9994 2 41603 97.2696 128.0655 0012500 327.7195 164.9760 15.19981061262806 Swayam 1 41607U 16040J 21077.72236492 .00002158 00000-0 88214-4 0 9994 2 41607 97.2793 136.1953 0011108 302.7815 57.2353 15.25376065263211 Pratham 1 41783U 16059A 21077.57787040 .00000071 00000-0 22676-4 0 9994 2 41783 97.9772 130.7416 0033864 170.3350 189.8511 14.63120055238969 AlSat 1N 1 41789U 16059G 21077.76754163 .00000131 00000-0 33468-4 0 9999 2 41789 97.9813 134.3973 0028755 155.1590 205.0985 14.64398183239179 ScatSat 1 41790U 16059H 21077.74157840 .00000030 00000-0 19088-4 0 9998 2 41790 98.3814 120.0617 0005629 145.2335 214.9221 14.50799960236998 TY-1 1 41844U 16066D 21077.74931650 .00001705 00000-0 69922-4 0 9997 2 41844 97.4022 88.9069 0016578 96.4076 349.7413 15.25517147242070 Pegasus-1 1 41846U 16066F 21077.39659720 .00000505 00000-0 85361-4 0 9997 2 41846 98.6223 135.7878 0367087 136.8326 226.2271 14.37971008228334 CAS-2T 1 41847U 16066G 21077.40582766 .00000186 00000-0 37460-4 0 9997 2 41847 98.6135 136.1096 0366272 132.0321 231.2662 14.38160475228791 EO-88 1 42017U 17008BX 21077.72735804 .00002380 00000-0 90611-4 0 9997 2 42017 97.3248 146.9397 0007659 76.5633 283.6460 15.27685311227408 CAS-4B 1 42759U 17034B 21077.73997358 .00000624 00000-0 50980-4 0 9998 2 42759 43.0189 319.7596 0010554 312.3885 93.9533 15.10117296207430 CAS-4A 1 42761U 17034D 21077.73585355 .00000654 00000-0 52681-4 0 9994 2 42761 43.0194 318.8975 0011032 314.8128 91.0850 15.10198881207439 UCLSat 1 42765U 17036A 21077.56018445 .00001862 00000-0 78495-4 0 9995 2 42765 97.2621 129.9563 0012327 133.3954 226.8313 15.24469401208327 NIUSat 1 42766U 17036B 21077.75366265 .00001553 00000-0 69880-4 0 9998 2 42766 97.2628 126.8334 0016489 131.4063 228.8594 15.22433182207417 LituanicaSAT 2 1 42768U 17036D 21077.58898310 .00003130 00000-0 12549-3 0 9994 2 42768 97.2694 130.5180 0015607 124.6066 235.6647 15.25632682207617 Aalto 1 1 42775U 17036L 21077.65917044 .00001317 00000-0 59746-4 0 9992 2 42775 97.2600 127.0314 0014944 130.3990 229.8554 15.22433943207387 URSA MAIOR 1 42776U 17036M 21077.67664830 .00001428 00000-0 64065-4 0 9990 2 42776 97.2614 127.4637 0014764 129.9025 230.3512 15.22675358207400 Max Valier Sat 1 42778U 17036P 21077.40036548 .00001680 00000-0 73546-4 0 9996 2 42778 97.2677 128.9526 0013350 132.6190 227.6175 15.23313161207426 Pegasus 1 42784U 17036V 21077.77812710 .00001680 00000-0 71927-4 0 9997 2 42784 97.2627 129.7376 0012890 134.4035 225.8260 15.24075721207542 NUDATSat 1 42787U 17036Y 21077.89419669 .00003130 00000-0 12497-3 0 9997 2 42787 97.2694 131.9691 0011071 123.9603 236.2690 15.25821570207521 SUCHAI 1 1 42788U 17036Z 21077.55962071 .00002074 00000-0 86295-4 0 9995 2 42788 97.2638 130.4004 0012442 132.6080 227.6210 15.24791780207633 SKCUBE 1 42789U 17036AA 21077.44270467 .00001865 00000-0 78409-4 0 9990 2 42789 97.2631 130.0410 0012323 133.4724 226.7541 15.24559753207523 VZLUSAT 1 1 42790U 17036AB 21077.55906411 .00002619 00000-0 10505-3 0 9999 2 42790 97.2662 131.6321 0011818 129.5060 230.7226 15.25799344207623 VENTA 1 1 42791U 17036AC 21077.42125697 .00002206 00000-0 92344-4 0 9999 2 42791 97.2628 130.0437 0011998 133.7764 226.4469 15.24524662207511 Robusta 1B 1 42792U 17036AD 21077.68785832 .00001945 00000-0 81107-4 0 9995 2 42792 97.2633 130.6234 0011926 132.5044 227.7204 15.24787318207596 D-SAT 1 42794U 17036AF 21077.59016895 .00000237 00000-0 25605-4 0 9997 2 42794 97.4699 102.2750 0126110 168.8795 191.5260 14.91480804203518 TechnoSat 1 42829U 17042E 21077.73661159 .00000304 00000-0 35821-4 0 9994 2 42829 97.4831 312.0201 0015742 90.0236 270.2787 14.91236890200162 QIKCOM-1 1 42983U 98067NF 21077.78009688 .00008546 00000-0 90097-4 0 9991 2 42983 51.6384 359.5502 0003321 23.4539 336.6608 15.65177117193195 AO-91 1 43017U 17073E 21077.29903430 .00000669 00000-0 57574-4 0 9993 2 43017 97.7135 344.8816 0254193 237.5892 120.0501 14.79387136179648 EcAMSat 1 43019U 98067NG 21077.75083062 .00021362 00000-0 14768-3 0 9998 2 43019 51.6416 332.4348 0002426 26.3115 333.8007 15.74481184275877 PICSAT 1 43132U 18004X 21077.48319474 .00002280 00000-0 92901-4 0 9990 2 43132 97.4156 152.8396 0009825 159.7489 200.4141 15.25463040176813 AO-92 1 43137U 18004AC 21077.39560094 .00001890 00000-0 78759-4 0 9992 2 43137 97.4134 152.3464 0009397 162.2805 197.8763 15.24927268176781 TianYi 2 1 43155U 18008A 21077.75885218 .00001200 00000-0 72997-4 0 9997 2 43155 97.4126 145.4230 0015702 283.9634 224.3362 15.12205218174368 Zhou Enlai 1 43156U 18008B 21077.73665079 .00001895 00000-0 11453-3 0 9996 2 43156 97.4170 145.2353 0012858 283.8543 229.8959 15.11797704174300 TianYi 6 1 43158U 18008D 21077.70489106 .00001527 00000-0 94392-4 0 9996 2 43158 97.4120 143.9061 0012170 283.2196 193.8497 15.11257842174236 S-Net D 1 43186U 18014G 21077.45335582 -.00000203 00000-0 -12604-4 0 9992 2 43186 97.6831 346.6524 0011909 32.6916 327.5041 14.96994984170682 S-Net B 1 43187U 18014H 21077.52008631 -.00000206 00000-0 -12874-4 0 9995 2 43187 97.6828 346.6877 0011882 32.4463 327.7487 14.96994510170697 S-Net A 1 43188U 18014J 21077.45322117 -.00000170 00000-0 -97445-5 0 9994 2 43188 97.6832 346.6627 0011896 32.6818 327.5138 14.96993539170687 S-Net C 1 43189U 18014K 21077.78791441 -.00000198 00000-0 -12190-4 0 9994 2 43189 97.6827 346.9442 0011841 31.4838 328.7091 14.96993248169281 FMN 1 1 43192U 18015A 21077.76890668 .00005491 00000-0 20740-3 0 9996 2 43192 97.4737 212.8150 0014387 197.8035 298.9582 15.27333762173747 Shaonian Xing 1 43199U 18015H 21077.69689155 .00003797 00000-0 14557-3 0 9998 2 43199 97.4509 210.2225 0015338 208.1388 260.1757 15.27023943173797 SurfSat 1 43614U 18070B 21077.47958077 .00004061 00000-0 97619-4 0 9995 2 43614 93.0231 268.1829 0014507 7.5260 352.6210 15.41257300140654 CP-7 DAVE 1 43615U 18070C 21077.48072379 .00003898 00000-0 94513-4 0 9996 2 43615 93.0233 268.1506 0014678 7.3179 352.8288 15.40999501140646 ELFIN-B 1 43616U 18070D 21077.59518030 .00005994 00000-0 13415-3 0 9998 2 43616 93.0192 268.2907 0014512 5.6803 354.4615 15.43377399140751 ELFIN-A 1 43617U 18070E 21077.25589624 .00008198 00000-0 18108-3 0 9992 2 43617 93.0243 268.9098 0013801 4.1222 356.0145 15.43762856140714 STARS-Me Mother 1 43640U 98067PQ 21077.44067631 .00078462 00000-0 37396-3 0 9993 2 43640 51.6309 346.3647 0000934 51.4954 308.6132 15.82151740139819 CubeBel 1 1 43666U 18083E 21077.74684245 .00002074 00000-0 10198-3 0 9997 2 43666 97.4658 107.2278 0016111 121.4842 329.9990 15.19032854132246 Changshagaoxin 1 43669U 18083H 21077.73122104 .00001614 00000-0 82852-4 0 9996 2 43669 97.4552 104.5645 0012199 115.4787 335.7766 15.17880715132121 Ten-Koh 1 43677U 18084G 21077.75564125 .00000311 00000-0 37755-4 0 9996 2 43677 97.9060 200.6385 0015376 338.4992 21.5578 14.90418805129790 PO-101 1 43678U 18084H 21077.76524900 .00000121 00000-0 17723-4 0 9997 2 43678 97.9086 202.6566 0010156 359.3607 0.7630 14.91718484129917 IRVINE 01 1 43693U 18088D 21077.48938276 .00004039 00000-0 16088-3 0 9996 2 43693 85.0314 255.3712 0016988 8.5473 351.6057 15.24763384130578 QO-100 1 43700U 18090A 21077.26281395 .00000142 00000-0 00000-0 0 9992 2 43700 0.0207 161.6787 0002234 227.9151 266.8293 1.00273067 8458 Reaktor Hello World 1 43743U 18096AA 21077.72061862 .00001926 00000-0 72173-4 0 9996 2 43743 97.3915 155.9259 0016047 234.6004 125.3737 15.28389121128278 MinXSS-2 1 43758U 18099A 21077.73853040 .00000846 00000-0 80504-4 0 9990 2 43758 97.6747 150.7847 0015126 358.2288 1.8877 14.95946717124957 AO-95 1 43770U 18099N 21077.44062148 .00000094 00000-0 13734-4 0 9999 2 43770 97.6735 149.6070 0014597 8.0282 352.1170 14.95230592124852 RANGE-B 1 43772U 18099Q 21077.41966360 .00001036 00000-0 98596-4 0 9993 2 43772 97.6816 150.4449 0013733 356.0382 4.0728 14.95505415124853 RANGE-A 1 43773U 18099R 21077.70787534 -.00000088 00000-0 -28517-5 0 9995 2 43773 97.6671 149.2796 0013258 354.6788 5.4290 14.95146723124885 MOVE-II 1 43780U 18099Y 21077.43729588 .00000381 00000-0 39210-4 0 9993 2 43780 97.6750 150.0387 0013400 5.6927 354.4444 14.95780498124863 SNUSat 2 1 43782U 18099AA 21077.15367872 .00000725 00000-0 70559-4 0 9991 2 43782 97.6734 149.6353 0012428 356.6380 3.4756 14.95478990124829 SnugLite 1 43784U 18099AC 21077.43708574 .00000089 00000-0 13140-4 0 9998 2 43784 97.6698 149.6636 0014986 1.8520 358.2754 14.95596936124886 ITASat 1 1 43786U 18099AE 21077.51187449 -.00000039 00000-0 16930-5 0 9998 2 43786 97.6752 150.2914 0015061 0.6583 359.4655 14.95536695124897 EAGLET 1 1 43790U 18099AJ 21077.43444515 .00000022 00000-0 71070-5 0 9991 2 43790 97.6743 150.5905 0013554 6.1830 353.9556 14.95911375124606 ESEO 1 43792U 18099AL 21077.74058929 .00000526 00000-0 52356-4 0 9991 2 43792 97.6709 150.5509 0013129 2.1971 357.9306 14.95701381124702 CSIM 1 43793U 18099AM 21077.74682956 .00001251 00000-0 11523-3 0 9991 2 43793 97.6732 150.8033 0012378 359.2534 0.8667 14.96435078124702 Astrocast 0.1 1 43798U 18099AS 21077.73026872 .00000488 00000-0 48522-4 0 9995 2 43798 97.6741 151.0441 0011706 343.8642 16.2205 14.96065864124954 JO-97 1 43803U 18099AX 21077.15568043 .00000725 00000-0 70012-4 0 9992 2 43803 97.6716 149.7062 0014981 2.6382 357.4915 14.95765188124846 Suomi 100 1 43804U 18099AY 21077.42713029 .00000494 00000-0 49442-4 0 9995 2 43804 97.6712 149.9456 0015080 1.7789 358.3483 14.95741895124898 Al Farabi 2 1 43805U 18099AZ 21077.57454630 .00000775 00000-0 74166-4 0 9995 2 43805 97.6733 150.2678 0015371 0.8542 359.2702 14.95936792124923 CHOMPTT 1 43855U 18104G 21077.76718437 .00001684 00000-0 68117-4 0 9995 2 43855 85.0409 353.6100 0019223 117.0694 243.2513 15.23700948125283 ISAT 1 43879U 18111D 21077.73288782 .00000029 00000-0 76152-5 0 9992 2 43879 97.6914 346.5728 0014472 48.5681 311.6792 14.96520372119485 UWE-4 1 43880U 18111E 21077.73537243 .00000397 00000-0 39750-4 0 9993 2 43880 97.6918 346.9958 0013283 51.6507 308.5906 14.96761739119511 Sparrow 1 43881U 18111F 21077.70937084 .00000421 00000-0 41755-4 0 9994 2 43881 97.6936 347.0849 0013880 49.8588 310.3847 14.96819228119516 Lume 1 1 43908U 18111AJ 21077.44935489 .00001907 00000-0 76825-4 0 9998 2 43908 97.2427 335.0390 0018925 252.6181 107.2989 15.25894957123793 FO-98 1 43933U 19003B 21077.66852133 .00009947 00000-0 40263-3 0 9993 2 43933 97.1943 122.5512 0016363 1.5771 358.5516 15.24757507120262 FO-99 1 43937U 19003F 21077.80487242 .00001654 00000-0 67940-4 0 9997 2 43937 97.1888 124.5813 0022565 338.0806 21.9465 15.25343850120445 MYSat 1 1 44045U 18092F 21077.65681762 .00004504 00000-0 12491-3 0 9998 2 44045 51.6376 148.9543 0010137 236.5274 123.4741 15.38975172117472 AstroCast 0.2 1 44083U 19018F 21077.73633381 .00001678 00000-0 75986-4 0 9990 2 44083 97.3839 140.4856 0011384 293.3536 66.6502 15.22216388109098 AISTechSat 3 1 44103U 19018AB 21077.73831333 .00001679 00000-0 72561-4 0 9997 2 44103 97.3704 140.8287 0012027 308.3081 200.2861 15.23809459109194 AISat 1 1 44104U 19018AC 21077.74456996 .00001359 00000-0 44894-4 0 9990 2 44104 97.4320 154.7562 0055949 319.4648 40.2432 15.31777011109780 Raavana-1 1 44329U 98067QE 21077.26280604 .00041174 00000-0 35189-3 0 9993 2 44329 51.6370 32.8443 0002986 327.4147 32.6665 15.69049398 99801 Uguisu 1 44330U 98067QF 21077.23712307 .00040156 00000-0 34730-3 0 9992 2 44330 51.6346 33.3522 0002972 326.7427 33.3382 15.68770788 99771 NepaliSat-1 1 44331U 98067QG 21077.25499968 .00039860 00000-0 34137-3 0 9991 2 44331 51.6342 32.7215 0003075 330.9798 29.1027 15.69013407 99793 Prox-1 1 44339U 19036A 21077.60545776 .00001229 00000-0 23980-3 0 9998 2 44339 23.9993 186.3172 0010736 270.9955 88.9306 14.53431157 91965 Oculus-ASR 1 44348U 19036K 21077.51840136 .00022875 00000-0 32079-3 0 9995 2 44348 28.5149 17.8345 0340746 4.5431 355.8142 15.09310759 95140 Armadillo 1 44352U 19036P 21077.18272482 .00035324 00000-0 47100-3 0 9990 2 44352 28.5299 4.9615 0315918 23.9638 337.5317 15.15374803 95198 NO-104 1 44354U 19036R 21077.50284134 .00023720 00000-0 32516-3 0 9997 2 44354 28.5298 12.3466 0336249 11.6778 349.1391 15.10697152 95185 NO-103 1 44355U 19036S 21077.82233298 .00048587 00000-0 57355-3 0 9994 2 44355 28.5269 338.5176 0286781 66.6551 296.3947 15.23643460 95557 CP9 1 44360U 19036X 21077.83712248 .00081220 -45976-5 67280-3 0 9994 2 44360 28.5067 292.6322 0229338 142.7675 218.9064 15.41562490 95889 Move-IIb 1 44398U 19038N 21077.60129535 .00002606 00000-0 14934-3 0 9995 2 44398 97.5715 42.0908 0022791 263.9443 95.9183 15.13295989 94021 SONATE 1 44400U 19038Q 21077.87583319 .00001272 00000-0 76708-4 0 9998 2 44400 97.5794 42.3024 0023197 262.2442 97.6157 15.12388812 94045 BeeSat 9 1 44412U 19038AC 21077.87347567 .00001383 00000-0 81752-4 0 9992 2 44412 97.5780 42.5104 0020640 266.3652 93.5218 15.13006267 93754 JAISAT-1 1 44419U 19038F 21077.34328648 .00001671 00000-0 96761-4 0 9996 2 44419 97.5783 42.4586 0019486 266.5582 93.3420 15.13490116 94010 LightSail-2 1 44420U 19036AC 21077.66279761 .00008477 00000-0 17179-2 0 9997 2 44420 24.0064 170.9972 0015910 300.2314 59.6604 14.59089282 90339 Taurus 1 1 44530U 19059C 21077.73405261 .00000841 00000-0 24859-3 0 9999 2 44530 98.5518 167.3229 0014656 62.5825 297.6858 14.45949705 79979 Duchifat 3 1 44854U 19089C 21077.69648968 .00000733 00000-0 65176-4 0 9997 2 44854 36.9665 277.3091 0006548 123.7077 236.4283 14.99377171 69474 OPS-SAT 1 44878U 19092F 21077.45761355 .00002074 00000-0 11043-3 0 9990 2 44878 97.4731 262.2964 0015208 122.8855 237.3844 15.16251534 69045 TO-108 1 44881U 19093C 21077.75720368 .00000086 00000-0 17812-4 0 9999 2 44881 97.9303 157.5524 0013932 224.3753 135.6336 14.81430102 67308 FloripaSat 1 1 44885U 19093G 21077.76099052 .00000424 00000-0 59792-4 0 9992 2 44885 97.9315 158.0092 0013476 232.8125 127.1841 14.82225938 67331 RS-44 1 44909U 19096E 21077.54422789 .00000031 00000-0 85766-4 0 9999 2 44909 82.5253 173.2118 0216370 305.8251 52.2915 12.79708847 57211 SwampSat-2 1 45115U 19071E 21077.68618370 .00029660 00000-0 59999-3 0 9997 2 45115 51.6369 105.6554 0009874 339.9905 20.0694 15.46149176 63363 HO-107 1 45119U 19071J 21077.69105443 .00002423 00000-0 80999-4 0 9997 2 45119 51.6414 116.7781 0011446 324.9740 35.0489 15.35131133 63227 Phoenix 1 45258U 98067RB 21077.47530856 .00008955 00000-0 13907-3 0 9999 2 45258 51.6403 63.5611 0004727 281.9113 78.1347 15.54774871 61042 AztechSat-1 1 45261U 98067RE 21077.74720716 .00024313 00000-0 29751-3 0 9999 2 45261 51.6387 56.3833 0005182 308.7421 51.3108 15.60236562 61189 QARMAN 1 45263U 98067RG 21077.35973840 .00020826 00000-0 27933-3 0 9991 2 45263 51.6398 61.2984 0005237 300.4051 59.6423 15.57903475 61129 Quetzal 1 1 45598U 98067RL 21077.36720605 .00018710 00000-0 26607-3 0 9998 2 45598 51.6406 64.3613 0003004 35.3886 324.7305 15.56411238 50351 BY70-2 1 45857U 20042B 21077.79204220 .00001397 00000-0 20645-3 0 9990 2 45857 97.9891 154.4824 0012545 141.7698 218.4393 14.76772912 38169 UPMSat 2 1 46276U 20061E 21077.75111218 .00000680 00000-0 38465-4 0 9991 2 46276 97.4396 153.3294 0001202 34.4472 325.6838 15.16327652 29791 AmicalSat 1 46287U 20061R 21077.74559647 .00001094 00000-0 70631-4 0 9995 2 46287 97.4949 152.9796 0004052 65.7817 294.3835 15.10295366 29659 SALSAT 1 46495U 20068K 21077.61143549 .00000457 00000-0 38073-4 0 9995 2 46495 97.6876 15.6903 0018070 26.2219 333.9918 15.03383481 25688 BY70-3 1 46839U 20079N 21077.74472894 .00004043 00000-0 12898-3 0 9992 2 46839 97.2476 153.4101 0007531 159.8174 319.1338 15.33044056 20307 SPOC 1 46921U 98067RR 21077.43646291 .00008641 00000-0 14547-3 0 9997 2 46921 51.6425 69.3255 0002885 88.3307 271.8013 15.52571816 20712 Bobcat-1 1 46922U 98067RS 21077.52849045 .00012104 00000-0 19424-3 0 9998 2 46922 51.6432 68.4473 0002646 87.6668 272.4625 15.53483582 20696 Neutron-1 1 46923U 98067RT 21077.44492541 .00008751 00000-0 14781-3 0 9999 2 46923 51.6424 69.3803 0002689 98.8202 261.3093 15.52458369 20746 CAPE 3 1 47309U 21002A 21077.77266213 .00000929 00000-0 54253-4 0 9992 2 47309 60.6831 270.8945 0025786 346.6504 13.3896 15.20448013 9096 OBJECT B 1 47310U 21002B 21077.36350022 .00002327 00000-0 11585-3 0 9995 2 47310 60.6814 272.2791 0024155 349.5912 10.4670 15.20888529 9029 AO-109 1 47311U 21002C 21077.07976677 .00001739 00000-0 88616-4 0 9990 2 47311 60.6848 273.1661 0021469 351.7688 8.3043 15.21353565 8963 OBJECT D 1 47312U 21002D 21077.72383022 .00007631 00000-0 34016-3 0 9990 2 47312 60.6874 270.6450 0021086 354.1001 5.9834 15.22106985 9079 OBJECT E 1 47313U 21002E 21077.71440272 .00002000 00000-0 98213-4 0 9996 2 47313 60.6855 270.5895 0021798 340.4404 19.5844 15.22028853 9075 MiTEE 1 1 47314U 21002F 21077.75712285 .00001940 00000-0 94206-4 0 9997 2 47314 60.6835 270.2266 0019609 335.3012 24.7134 15.22581868 9091 OBJECT G 1 47315U 21002G 21077.21963994 .00001827 00000-0 88868-4 0 9995 2 47315 60.6824 272.1313 0017159 336.7917 23.2394 15.22834556 9010 OBJECT J 1 47317U 21002J 21077.24389780 .00000993 00000-0 57035-4 0 9990 2 47317 60.6823 272.8434 0025580 345.5984 14.4369 15.20506905 8982 OBJECT K 1 47318U 21002K 21077.24273052 .00001009 00000-0 57738-4 0 9994 2 47318 60.6822 272.8361 0025506 345.3924 14.6422 15.20535362 8982 ExoCube 2 1 47319U 21002L 21077.75115162 .00001190 00000-0 65103-4 0 9994 2 47319 60.6814 270.7723 0023251 350.9322 9.1341 15.20981558 9030 OBJECT M 1 47320U 21002M 21077.73901936 .00001982 00000-0 99395-4 0 9995 2 47320 60.6833 270.7095 0022159 351.4463 8.6242 15.21322103 9112 OBJECT N 1 47345U 21002N 21077.71438185 .00002107 00000-0 10285-3 0 9991 2 47345 60.6853 270.5893 0021790 340.5088 19.5163 15.22026668 8803 UVSQ-SAT 1 47438U 21006AB 21077.11653942 .00001174 00000-0 70196-4 0 9993 2 47438 97.4985 139.9359 0014118 58.0509 302.2093 15.12925068 8243 YUSAT 1 1 47439U 21006AC 21077.71282999 .00001148 00000-0 68795-4 0 9993 2 47439 97.4985 140.5208 0013945 56.4223 303.8337 15.12897244 8339 SOMP 2b 1 47445U 21006AJ 21077.71692848 .00001085 00000-0 65424-4 0 9994 2 47445 97.4957 140.4918 0013766 59.6735 300.5856 15.12777174 8335 IDEASSat 1 47458U 21006AX 21077.39088381 .00001176 00000-0 70871-4 0 9996 2 47458 97.5048 140.2292 0012871 59.5228 300.7273 15.12640934 8288 /EX
